Date String (YYYY-MM-DD hh:mm:ss) UTC,Instrument flags,Ambient pressure (hPa),Sample flow (lpm),Bypass flow (lpm),Sample temperature (°C),Ambient temperature (°C),ASC tube jacket temperature (°C),LED temperature (°C),Box temperature (°C),Sample RH (%),Span deviation,Mass concentration (μg/m³),Mass concentration (μg/m³),Mass concentration (μg/m³)
DateTimeUTC,F1_M11,P_M11,Q1_M11,Q2_M11,T1_M11,T2_M11,T3_M11,T4_M11,T5_M11,U1_M11,ZSPAN_M11,X0_M11,X2_M11,X1_M11
2021-12-05 21:00:00,,0818.4,5.00,0.00,26.8,26.1,00.0,35.8,28.6,04.3,0000.0,0004.59,0001.03,0000.42
2021-12-05 21:01:00,,0818.4,5.01,0.00,26.8,26.1,00.0,35.8,28.6,04.4,0000.0,0003.48,0001.05,0000.42
2021-12-05 21:02:00,,0818.4,5.00,0.00,26.8,26.1,00.0,35.8,28.6,04.4,0000.0,0003.27,0001.08,0000.42
2021-12-05 21:03:00,,0818.4,4.99,0.00,26.9,26.1,00.0,35.8,28.6,04.4,0000.0,0003.00,0001.09,0000.43
2021-12-05 21:04:00,,0818.5,5.02,0.00,26.9,26.1,00.0,35.8,28.6,04.4,0000.0,0002.58,0001.11,0000.43
2021-12-05 21:05:00,,0818.7,4.98,0.00,26.9,26.1,00.0,35.8,28.7,04.4,0000.0,0003.17,0001.13,0000.44
2021-12-05 21:06:00,,0818.7,5.01,0.00,26.9,26.2,00.0,35.8,28.6,04.3,0000.0,0003.93,0001.10,0000.45
2021-12-05 21:07:00,,0818.7,5.01,0.00,26.9,26.2,00.0,35.8,28.7,04.3,0000.0,0004.74,0001.10,0000.46
2021-12-05 21:08:00,,0818.8,4.99,0.00,26.9,26.2,00.0,35.8,28.7,04.3,0000.0,0004.70,0001.10,0000.46
2021-12-05 21:09:00,,0818.7,5.01,0.00,26.9,26.2,00.0,35.9,28.7,04.4,0000.0,0005.22,0001.08,0000.44
2021-12-05 21:10:00,,0818.8,4.99,0.00,27.0,26.2,00.0,35.9,28.7,04.4,0000.0,0005.96,0001.04,0000.44
2021-12-05 21:11:00,,0818.9,5.01,0.00,27.0,26.2,00.0,35.9,28.7,04.4,0000.0,0007.95,0001.01,0000.43
2021-12-05 21:12:00,,0818.8,4.99,0.00,27.0,26.2,00.0,35.9,28.7,04.5,0000.0,0008.24,0001.03,0000.43
2021-12-05 21:13:00,,0818.8,5.02,0.00,27.0,26.2,00.0,35.9,28.8,04.5,0000.0,0008.24,0001.03,0000.43
2021-12-05 21:14:00,,0818.8,4.99,0.00,27.0,26.2,00.0,35.9,28.8,04.5,0000.0,0008.38,0001.05,0000.44
2021-12-05 21:15:00,,0818.9,5.00,0.00,27.0,26.2,00.0,36.0,28.8,04.5,0000.0,0008.41,0001.02,0000.44
2021-12-05 21:16:00,,0819.0,5.01,0.00,27.1,26.2,00.0,36.0,28.8,04.5,0000.0,0008.14,0000.98,0000.43
2021-12-05 21:17:00,,0819.0,5.01,0.00,27.1,26.2,00.0,36.0,28.8,04.5,0000.0,0008.01,0001.01,0000.44
2021-12-05 21:18:00,,0818.7,4.98,0.00,27.1,26.2,00.0,36.0,28.9,04.6,0000.0,0008.10,0001.05,0000.44
2021-12-05 21:19:00,,0818.9,5.02,0.00,27.1,26.2,00.0,36.0,28.9,04.6,0000.0,0008.82,0001.08,0000.44
2021-12-05 21:20:00,,0819.1,4.99,0.00,27.1,26.3,00.0,36.0,28.9,04.6,0000.0,0009.17,0001.09,0000.45
2021-12-05 21:21:00,,0819.1,5.00,0.00,27.1,26.3,00.0,36.0,28.9,04.6,0000.0,0008.93,0001.09,0000.45
2021-12-05 21:22:00,,0819.2,5.02,0.00,27.2,26.3,00.0,36.1,28.9,04.6,0000.0,0007.44,0001.02,0000.45
2021-12-05 21:23:00,,0819.2,4.98,0.00,27.2,26.4,00.0,36.1,28.9,04.6,0000.0,0008.02,0001.03,0000.45
2021-12-05 21:24:00,,0819.2,5.00,0.00,27.2,26.4,00.0,36.1,29.0,04.6,0000.0,0008.14,0001.03,0000.46
2021-12-05 21:25:00,,0819.3,4.99,0.00,27.2,26.4,00.0,36.1,29.0,04.5,0000.0,0008.08,0001.03,0000.46
2021-12-05 21:26:00,,0819.3,4.99,0.00,27.2,26.4,00.0,36.1,29.0,04.5,0000.0,0008.38,0001.08,0000.47
2021-12-05 21:27:00,,0819.4,5.02,0.00,27.2,26.4,00.0,36.1,29.0,04.6,0000.0,0009.56,0001.08,0000.47
2021-12-05 21:28:00,,0819.4,5.00,0.00,27.3,26.4,00.0,36.1,29.1,04.6,0000.0,0009.78,0001.08,0000.47
2021-12-05 21:29:00,,0819.3,4.99,0.00,27.3,26.4,00.0,36.2,29.1,04.5,0000.0,0009.44,0001.06,0000.47
2021-12-05 21:30:00,,0819.3,5.01,0.00,27.3,26.5,00.0,36.2,29.1,04.4,0000.0,0008.85,0001.02,0000.48
2021-12-05 21:31:00,,0819.2,5.00,0.00,27.3,26.5,00.0,36.2,29.1,04.4,0000.0,0008.17,0000.97,0000.48
2021-12-05 21:32:00,,0819.3,5.00,0.00,27.3,26.5,00.0,36.2,29.1,04.4,0000.0,0008.73,0000.97,0000.49
2021-12-05 21:33:00,,0819.3,5.00,0.00,27.3,26.5,00.0,36.2,29.1,04.4,0000.0,0008.81,0001.04,0000.49
2021-12-05 21:34:00,,0819.3,5.01,0.00,27.3,26.5,00.0,36.2,29.1,04.5,0000.0,0007.81,0001.00,0000.48
2021-12-05 21:35:00,,0819.5,5.00,0.00,27.3,26.6,00.0,36.3,29.1,04.5,0000.0,0007.70,0000.97,0000.47
2021-12-05 21:36:00,,0819.5,5.00,0.00,27.4,26.6,00.0,36.3,29.1,04.6,0000.0,0007.65,0000.96,0000.47
2021-12-05 21:37:00,,0819.5,4.99,0.00,27.4,26.6,00.0,36.3,29.2,04.6,0000.0,0007.20,0000.98,0000.47
2021-12-05 21:38:00,,0819.5,5.01,0.00,27.4,26.6,00.0,36.3,29.2,04.6,0000.0,0006.29,0001.00,0000.47
2021-12-05 21:39:00,,0819.4,4.99,0.00,27.4,26.6,00.0,36.3,29.2,04.6,0000.0,0005.65,0001.04,0000.48
2021-12-05 21:40:00,,0819.5,5.02,0.00,27.4,26.7,00.0,36.3,29.2,04.6,0000.0,0005.94,0001.05,0000.48
2021-12-05 21:41:00,,0819.5,4.98,0.00,27.4,26.7,00.0,36.3,29.2,04.6,0000.0,0007.72,0001.10,0000.48
2021-12-05 21:42:00,,0819.6,5.00,0.00,27.4,26.7,00.0,36.3,29.2,04.6,0000.0,0007.73,0001.16,0000.48
2021-12-05 21:43:00,,0819.8,5.00,0.00,27.4,26.7,00.0,36.3,29.2,04.7,0000.0,0006.86,0001.15,0000.48
2021-12-05 21:44:00,,0819.8,5.00,0.00,27.4,26.7,00.0,36.4,29.2,04.7,0000.0,0007.45,0001.13,0000.48
2021-12-05 21:45:00,,0819.9,5.00,0.00,27.4,26.7,00.0,36.4,29.2,04.6,0000.0,0008.44,0001.14,0000.49
2021-12-05 21:46:00,,0819.9,5.00,0.00,27.4,26.7,00.0,36.4,29.2,04.7,0000.0,0008.65,0001.20,0000.49
2021-12-05 21:47:00,,0820.1,5.00,0.00,27.4,26.7,00.0,36.4,29.2,04.7,0000.0,0008.76,0001.24,0000.50
2021-12-05 21:48:00,,0820.2,5.00,0.00,27.4,26.7,00.0,36.4,29.2,04.8,0000.0,0008.88,0001.23,0000.49
2021-12-05 21:49:00,,0820.2,4.99,0.00,27.5,26.6,00.0,36.4,29.2,04.8,0000.0,0008.39,0001.20,0000.50
2021-12-05 21:50:00,,0820.3,5.00,0.00,27.5,26.6,00.0,36.4,29.3,04.9,0000.0,0008.22,0001.15,0000.50
2021-12-05 21:51:00,,0820.5,5.00,0.00,27.5,26.6,00.0,36.4,29.3,04.9,0000.0,0008.62,0001.14,0000.49
2021-12-05 21:52:00,,0820.7,5.00,0.00,27.5,26.7,00.0,36.4,29.3,04.9,0000.0,0007.28,0001.13,0000.49
2021-12-05 21:53:00,,0821.0,5.01,0.00,27.6,26.7,00.0,36.5,29.4,04.9,0000.0,0006.99,0001.12,0000.49
2021-12-05 21:54:00,,0821.0,4.99,0.00,27.6,26.8,00.0,36.5,29.4,05.6,0000.0,0008.76,0001.47,0000.51
2021-12-05 21:55:00,,0821.2,5.01,0.00,27.6,26.8,00.0,36.5,29.5,08.4,0000.0,0020.91,0003.51,0000.73
2021-12-05 21:56:00,,0821.3,4.99,0.00,27.6,26.9,00.0,36.5,29.5,09.3,0000.0,0036.81,0005.38,0001.06
2021-12-05 21:57:00,,0821.5,5.01,0.00,27.6,26.9,00.0,36.5,29.5,09.5,0000.0,0055.66,0007.07,0001.39
2021-12-05 21:58:00,,0821.6,5.00,0.00,27.6,26.8,00.0,36.5,29.5,09.6,0000.0,0071.50,0008.82,0001.69
2021-12-05 21:59:00,,0821.6,5.00,0.00,27.6,26.8,00.0,36.5,29.4,09.7,0000.0,0088.34,0010.45,0002.00
